Location: Peebles
(55.6412°N, 3.1714°W)
Time: 22:54:02
(UTC+00:00)

Sich 1 Rocket - Visible Passes

Search period start: 27 January 2022 00:00
Search period end: 06 February 2022 00:00
Orbit: 615 x 653 km, 82.5° (Epoch: 27 January)

Date Brightness Start Highest point End Pass type
(mag) Time Alt. Az. Time Alt. Az. Time Alt. Az.
27 Jan 6.0 04:32:40 16° NNE 04:32:40 16° NNE 04:33:36 10° NNE visible
27 Jan 5.6 06:10:09 14° NNW 06:10:09 14° NNW 06:11:06 10° NNW visible
28 Jan 5.8 04:54:51 16° N 04:54:51 16° N 04:55:44 10° N visible
29 Jan 5.8 05:16:59 14° N 05:16:59 14° N 05:17:42 10° N visible
30 Jan 6.5 04:01:37 11° NNE 04:01:37 11° NNE 04:01:48 10° NNE visible
30 Jan 5.9 05:39:06 12° NNW 05:39:06 12° NNW 05:39:28 10° N visible
31 Jan 6.3 04:23:42 12° N 04:23:42 12° N 04:23:58 10° N visible
01 Feb 6.2 04:45:46 11° N 04:45:46 11° N 04:45:59 10° N visible
02 Feb 6.1 05:07:49 10° N 05:07:49 10° N 05:07:50 10° N visible
